Temperature
15 15 16 16 13 11 12 13 13 13 13 13 13 13 13 13 13 14 13 14 13 14 13 13 13 13 14 14 14 14 14 14 14 14 14 14 14 14 14 14 14 14 14 14 14 14 14 14 15
15 15 16 15 12 12 12 12 12 12 13 13 13 13 12 12 13 13 13 13 13 13 13 13 13 13 13 14 14 14 14 14 14 14 14 14 14 14 14 14 14 14 14 14 14 14 14 14 14
15 15 15 11 11 12 13 13 12 12 13 13 12 12 12 12 13 13 13 13 13 13 13 13 13 13 13 13 13 13 14 14 14 13 14 14 14 14 14 14 14 14 14 14 14 14 14 14 14
15 15 14 11 12 11 12 12 12 12 13 13 12 11 11 12 12 12 13 13 13 13 13 13 13 13 13 13 13 13 13 13 13 13 13 13 13 13 13 13 14 14 14 14 14 14 14 14 14
14 14 11 11 11 11 11 12 12 12 12 12 12 11 11 12 12 12 12 12 12 12 12 13 12 12 13 13 13 13 13 13 13 13 13 13 13 13 13 13 13 13 13 13 13 13 13 13 13
14 11 10 10 11 11 11 12 12 12 12 12 11 10 11 11 12 12 12 12 12 12 12 12 12 12 12 12 12 12 13 13 13 13 13 13 13 13 13 13 13 13 13 13 13 13 13 13 13
13 9 10 11 11 11 12 12 12 11 11 11 12 10 11 11 11 11 11 11 11 11 12 12 12 12 12 12 12 12 12 12 12 12 12 12 12 12 12 12 12 13 13 13 13 13 13 13 13
13 9 10 10 11 11 12 12 12 12 11 12 12 11 11 11 11 11 11 11 11 11 11 11 11 11 11 12 12 12 11 11 12 12 12 12 12 12 12 12 12 12 12 12 12 12 12 12 12
12 9 10 10 11 11 11 11 11 11 11 11 11 11 11 11 11 11 10 10 10 11 11 11 11 11 11 11 11 11 11 11 11 11 11 11 11 11 11 11 12 12 12 12 12 12 12 12 12
11 9 10 10 10 11 11 11 11 10 10 10 10 11 11 11 11 10 10 10 10 10 10 10 10 10 10 11 11 11 11 11 11 11 11 11 11 11 11 11 11 11 11 11 11 11 11 11 12
9 9 9 10 10 10 10 10 10 10 9 10 10 11 10 10 10 10 10 10 10 10 10 10 10 10 10 10 10 10 10 10 10 11 11 11 11 10 10 10 11 11 11 11 11 11 11 11 11
8 8 9 9 10 10 10 9 9 9 10 10 11 11 10 10 10 10 10 10 10 10 10 10 10 10 10 10 10 10 10 10 10 10 10 10 10 10 10 10 10 10 10 10 10 11 11 11 11
8 8 9 9 9 9 9 8 8 8 9 10 10 10 10 10 9 9 9 9 9 9 9 9 9 9 9 9 9 9 10 10 10 10 10 10 10 10 10 10 10 10 10 10 10 10 10 10 10
8 8 8 8 9 9 8 8 7 8 9 9 9 9 9 9 9 9 9 9 9 9 9 8 9 9 9 9 9 9 9 9 9 9 9 9 9 9 9 9 9 10 10 10 10 10 10 10 10
8 7 7 7 8 8 8 7 6 8 8 8 8 8 8 8 8 8 8 8 8 8 8 8 8 8 8 8 8 8 8 8 8 8 8 8 9 9 9 9 9 9 9 9 9 9 9 9 9
7 7 7 7 7 7 8 7 7 8 7 7 7 7 7 8 8 8 8 8 8 8 7 7 7 7 8 8 8 8 8 8 8 7 8 8 8 8 8 8 8 8 8 9 9 9 9 9 9
6 6 7 7 6 6 6 6 5 7 6 5 6 6 7 7 7 7 7 7 7 7 7 7 7 7 7 7 7 7 7 7 7 7 7 7 7 7 7 8 8 8 8 8 8 8 8 8 8
7 6 6 6 6 5 5 5 5 5 5 4 5 5 5 6 7 7 7 7 7 7 7 6 6 6 6 6 6 6 6 6 6 6 6 6 7 7 7 7 7 7 7 7 7 8 7 7 8
6 6 5 6 6 5 4 4 5 5 4 4 4 4 5 5 6 6 6 6 6 6 6 6 6 6 6 5 5 5 5 5 6 6 6 6 6 6 6 6 7 7 7 7 7 7 7 7 7
6 5 5 5 5 5 3 4 4 3 3 4 4 4 4 5 5 5 5 5 6 6 6 5 5 5 5 5 5 5 5 5 5 5 5 5 5 5 6 6 6 6 6 6 6 6 6 6 6
5 5 5 5 4 4 3 4 4 3 3 3 4 4 4 4 4 5 5 5 5 5 5 5 5 5 4 4 4 4 4 4 4 4 4 4 5 5 5 5 5 5 5 5 5 5 6 6 5
5 5 5 5 4 3 3 4 4 3 2 2 3 3 4 4 4 4 4 4 4 4 4 4 4 4 4 4 4 4 4 4 4 4 4 4 4 4 4 4 4 4 5 5 5 5 5 5 5
4 4 4 4 3 2 2 2 3 2 3 3 2 3 3 4 4 4 4 4 4 4 4 4 3 3 3 3 3 3 3 3 3 3 3 3 3 3 3 4 4 4 4 4 4 4 4 4 4
3 3 3 2 2 3 2 2 3 2 2 2 2 2 3 3 3 3 3 3 3 3 3 3 3 3 3 3 3 3 3 3 3 3 3 3 3 3 3 3 3 3 3 3 3 3 3 4 4
3 3 3 3 2 3 2 2 2 2 1 1 1 1 2 2 2 3 3 3 3 3 3 3 2 2 2 2 2 2 2 2 2 2 2 2 2 2 2 2 2 2 2 2 3 3 3 3 3
3 3 3 3 3 2 1 1 2 1 0 1 1 1 1 1 2 2 2 2 2 2 2 2 2 2 2 2 2 2 1 1 1 1 1 1 1 1 1 1 2 2 2 2 2 2 2 2 2
2 2 2 2 1 1 1 0 1 0 0 -0 -0 0 1 1 1 1 2 2 2 2 2 1 1 1 1 1 1 1 1 1 1 1 1 1 1 1 1 1 1 1 1 1 1 1 1 1 2
2 1 0 1 2 2 1 1 1 1 1 0 -1 -1 0 1 1 1 1 1 1 1 1 1 1 1 1 1 1 0 0 0 0 -0 0 -0 -0 0 0 0 0 0 0 0 1 1 1 1 1
1 1 1 0 1 1 1 2 1 1 1 -0 -1 -1 -0 0 1 0 1 1 1 1 0 0 0 0 -0 -0 -0 -0 -0 -1 -1 -1 -1 -1 -1 -1 -1 -1 -1 -1 -0 -0 -0 0 -0 0 0
1 1 -0 1 0 -1 -0 1 0 -1 -1 -1 -1 -0 -0 -0 -0 -0 0 0 0 -0 -0 -0 -0 -1 -1 -1 -1 -1 -1 -1 -1 -1 -1 -1 -1 -1 -1 -1 -1 -1 -1 -1 -1 -1 -1 -1 -1
Wind_Speed
7 4 2 4 4 3 3 4 2 1 2 1 1 3 5 5 4 3 0 1 2 2 2 3 4 5 6 6 7 8 9 10 11 11 11 12 12 12 13 13 13 13 13 14 14 14 15 15 16
3 2 4 4 4 2 4 3 4 3 3 2 2 2 3 1 0 1 0 1 2 3 3 3 5 6 7 7 8 9 10 11 11 11 11 12 12 12 12 12 13 13 13 14 14 14 15 15 15
1 3 4 4 4 6 4 3 5 2 2 2 2 2 1 1 1 1 0 1 4 4 4 4 6 8 8 8 8 9 10 11 11 11 11 11 11 12 12 12 13 13 13 13 14 15 15 15 15
3 4 4 3 5 6 4 3 2 1 1 1 3 1 0 2 0 1 2 4 5 5 5 4 7 8 8 8 9 10 10 11 11 11 11 10 11 11 12 12 12 12 12 13 13 14 15 15 14
4 4 2 2 6 4 3 2 2 2 2 1 3 2 1 2 3 4 4 5 5 5 5 5 7 8 9 9 9 9 9 10 11 11 11 10 10 11 11 11 12 12 12 12 12 13 14 14 15
4 4 3 5 6 4 2 2 2 2 2 1 3 3 2 2 3 4 4 5 5 5 6 6 7 8 9 10 10 9 9 10 10 10 10 10 10 10 11 11 11 11 11 11 11 12 13 13 13
4 4 4 5 5 4 3 3 3 3 3 3 4 4 1 0 2 4 5 6 6 6 6 7 6 7 7 8 9 9 9 10 10 10 10 10 10 10 10 10 10 10 10 10 10 11 12 12 12
4 4 3 4 5 6 2 2 1 3 3 1 3 4 3 3 4 5 6 6 6 6 6 6 6 6 7 7 7 8 9 9 9 9 9 10 9 9 9 9 9 9 9 9 9 10 11 11 11
3 2 5 6 6 4 1 2 0 1 2 1 1 0 1 6 7 6 5 4 4 4 4 5 6 6 6 6 7 7 8 9 9 9 9 9 8 8 8 8 8 8 9 9 9 9 10 10 11
3 4 7 4 3 2 1 2 2 2 0 1 0 2 5 7 7 6 5 4 3 2 2 4 4 5 6 6 6 7 7 8 8 8 8 7 7 7 7 8 8 8 8 8 9 9 10 10 9
3 5 3 2 1 1 1 1 1 3 4 6 5 4 5 6 6 6 5 4 3 2 2 2 3 4 5 5 6 6 6 7 8 8 8 8 7 7 7 7 7 7 7 7 7 8 8 8 8
2 2 2 2 1 1 2 2 2 4 5 2 3 6 7 8 7 7 6 4 3 2 2 2 3 4 4 5 5 5 5 5 5 6 7 7 5 5 5 5 5 6 6 6 6 6 7 8 8
3 3 2 2 2 2 2 3 3 4 3 1 4 6 7 8 6 4 4 3 3 2 1 1 2 3 3 4 4 4 4 4 5 5 6 6 5 4 4 4 5 5 5 5 5 5 6 6 6
1 2 3 4 3 2 3 5 3 6 1 1 2 4 5 7 6 5 4 4 4 3 2 1 2 2 3 3 3 3 4 4 5 5 5 5 5 3 3 4 4 4 4 4 4 4 4 4 5
0 2 4 3 2 2 1 6 6 5 2 2 3 3 4 5 5 6 6 5 4 3 2 2 2 3 3 3 3 3 4 4 4 4 4 5 5 4 3 3 3 3 4 5 5 5 5 4 4
2 2 4 4 1 1 2 9 5 2 4 4 4 4 4 4 4 5 5 4 4 3 3 2 2 2 3 3 3 3 4 4 4 4 4 4 4 4 4 3 2 3 4 4 3 3 2 2 2
2 2 4 5 1 1 3 8 6 2 4 5 5 5 4 4 3 4 4 4 4 4 4 3 2 2 2 3 3 3 3 4 4 4 3 3 3 4 4 3 3 3 3 3 3 2 1 2 2
4 4 4 5 3 1 4 9 8 4 4 6 6 5 5 5 6 4 4 4 4 4 4 3 2 2 2 3 3 3 3 3 3 3 3 3 3 3 3 3 3 3 3 2 2 2 2 1 2
3 4 6 5 2 2 7 11 11 6 5 7 7 6 6 6 4 2 3 4 4 3 3 3 2 2 2 2 1 1 1 0 1 2 2 2 2 2 3 3 2 2 2 1 2 2 2 1 1
5 6 7 5 1 2 6 11 9 5 5 6 7 7 7 4 2 3 3 4 4 5 4 4 3 3 3 2 2 1 1 1 1 1 2 2 2 2 2 2 2 1 1 2 2 2 1 1 1
5 7 7 6 4 2 5 8 6 4 3 4 5 5 5 6 5 4 4 4 4 4 4 4 4 3 2 2 2 2 1 1 0 1 1 2 1 1 1 1 2 1 1 2 2 3 3 2 1
6 4 5 5 2 4 1 6 7 4 5 5 5 5 5 4 4 4 4 4 4 4 3 3 3 3 3 3 3 3 2 2 2 2 1 1 1 1 1 1 1 1 1 1 2 2 2 3 3
4 1 2 3 3 4 2 4 9 2 5 6 5 5 4 4 4 4 4 4 3 3 3 3 3 3 2 3 4 3 2 2 1 1 1 1 1 1 1 0 1 1 1 1 1 1 2 3 3
2 2 2 2 1 4 6 6 8 4 6 5 4 3 3 2 2 2 1 1 1 1 2 2 2 2 2 3 3 4 3 2 1 1 2 1 1 1 1 0 1 1 1 1 2 2 3 3 3
2 2 2 3 2 6 3 5 9 6 5 5 5 4 3 1 1 1 0 0 0 1 2 2 2 2 2 2 2 3 3 4 4 3 3 2 2 2 2 2 1 1 2 2 2 2 2 3 4
3 5 5 4 5 5 2 7 7 4 3 3 3 2 1 1 1 1 0 0 1 1 1 2 2 2 3 3 3 2 2 3 3 3 3 3 3 3 3 2 2 2 2 2 2 2 3 2 3
3 4 3 3 2 4 6 6 8 3 3 2 1 1 1 1 1 1 0 0 1 1 1 1 2 2 3 3 3 3 3 3 3 3 3 3 3 3 3 3 3 3 2 2 2 2 3 3 3
2 4 3 3 3 5 6 6 5 5 6 4 2 2 2 1 1 1 1 1 1 1 1 0 1 2 2 2 3 2 3 3 3 3 3 3 3 3 3 3 3 3 3 3 2 2 3 4 4
3 3 3 3 3 4 5 7 5 6 6 5 5 4 3 2 2 2 2 1 1 0 0 1 1 1 1 1 2 2 2 2 2 2 3 3 3 3 3 4 4 4 4 4 3 3 3 4 4
5 6 6 4 5 5 5 8 4 4 4 4 5 4 3 2 2 2 1 1 1 1 1 1 1 1 2 1 1 2 1 1 2 2 3 2 3 3 3 3 4 4 4 4 4 5 4 5 5
Wind_Direction
343 357 66 61 60 56 233 241 221 212 217 194 130 133 151 156 163 188 323 61 64 97 136 142 137 127 122 112 103 101 100 100 96 90 89 88 84 81 80 77 74 72 72 74 76 76 79 81 83
337 22 58 68 111 192 255 235 218 223 192 135 85 93 112 164 113 102 51 355 74 92 105 117 123 127 122 113 108 105 103 100 96 92 90 88 85 81 79 77 75 73 72 73 75 76 81 83 83
5 51 85 89 151 193 216 217 211 231 189 152 116 65 136 179 167 171 257 105 83 76 83 103 114 123 119 114 110 107 103 102 98 95 93 91 87 84 80 77 75 74 74 76 74 75 78 82 83
70 51 59 102 217 222 217 221 181 147 38 81 133 111 327 17 335 145 103 100 94 70 75 95 104 115 115 110 112 111 107 105 102 99 97 94 91 87 83 78 76 76 77 78 78 77 77 79 83
59 84 86 230 242 252 240 238 180 167 191 160 145 158 208 12 49 82 93 95 100 75 67 90 101 101 103 105 107 111 109 107 102 99 96 93 93 90 85 81 78 78 80 79 79 81 80 79 79
63 80 146 225 244 261 259 221 185 192 184 141 150 160 190 52 82 91 93 91 85 81 69 75 93 98 97 94 92 95 104 104 99 96 94 91 90 90 88 84 80 77 79 79 79 81 81 80 79
120 123 191 211 239 258 242 184 187 192 206 210 170 159 208 125 116 106 98 90 79 74 70 66 73 82 89 91 91 91 86 88 91 91 90 87 85 84 85 83 82 80 78 80 80 82 80 79 78
128 123 195 217 225 248 222 165 177 186 217 167 146 168 214 194 134 107 95 85 78 69 63 60 64 68 70 76 84 89 87 82 81 82 83 83 78 75 77 78 81 81 80 80 82 81 80 79 78
98 119 215 217 210 236 165 155 150 44 126 90 90 116 91 122 122 111 96 80 79 71 57 56 59 61 66 72 75 81 84 82 79 77 78 77 71 67 66 69 75 77 77 78 76 81 79 78 76
107 194 224 216 201 217 217 201 186 131 242 255 255 69 96 119 134 137 134 135 129 108 70 51 63 62 66 69 70 70 73 75 74 73 73 75 74 71 68 68 69 70 74 77 74 77 77 74 71
163 206 227 246 248 207 218 230 172 169 235 231 210 173 142 138 147 155 154 147 146 136 106 61 66 71 73 71 71 67 66 66 69 70 73 79 74 66 63 62 59 61 66 67 67 68 72 73 72
186 252 245 274 290 236 228 217 223 205 234 273 187 147 150 157 170 176 172 163 139 109 98 73 69 74 74 80 79 78 71 65 64 66 74 79 73 61 58 64 62 67 70 66 65 69 70 75 75
230 264 288 286 302 261 252 241 242 250 248 65 117 134 160 171 179 179 165 149 138 133 116 79 69 85 86 83 78 79 77 74 71 67 69 77 77 71 62 64 67 68 73 74 69 70 69 71 72
245 273 285 286 280 291 252 265 242 257 193 140 152 169 181 179 182 176 169 169 171 171 168 140 92 82 89 90 86 79 82 83 78 69 64 75 79 77 77 68 65 64 71 76 79 75 78 70 76
58 328 313 283 261 275 286 283 238 240 152 192 218 202 198 198 188 189 190 183 179 175 163 151 131 88 91 92 95 88 86 90 79 70 65 67 75 84 83 77 62 60 81 85 79 73 76 68 64
28 352 297 294 260 268 172 264 266 210 185 227 236 227 219 218 208 201 185 176 168 155 150 146 121 104 104 98 87 89 88 89 79 73 64 59 68 85 93 81 62 66 87 89 83 77 80 80 60
12 277 265 295 273 174 197 259 279 239 200 234 241 235 227 227 229 213 188 176 168 163 156 147 132 128 116 105 94 78 81 80 78 74 63 52 64 80 99 93 80 87 78 76 90 81 98 110 87
241 246 261 260 288 223 238 261 278 262 219 237 245 240 232 230 237 217 185 173 163 157 151 148 138 126 108 101 90 82 67 64 69 68 58 56 59 71 89 89 84 92 86 77 85 100 79 109 101
220 231 258 262 283 249 253 270 279 268 247 248 248 243 238 239 241 196 176 163 153 151 148 152 142 133 118 117 137 157 181 18 43 53 59 67 65 69 78 81 90 91 115 128 117 109 101 95 81
242 256 267 282 289 247 282 280 278 262 245 242 242 243 237 235 227 207 187 173 173 175 170 166 165 158 154 154 169 174 165 165 57 44 54 60 73 77 79 88 96 92 126 130 135 122 129 103 94
245 235 249 265 328 322 316 295 269 264 251 263 250 240 231 216 216 214 206 198 187 188 187 182 178 169 162 133 115 100 88 85 47 340 341 6 58 86 75 99 110 112 146 172 180 171 156 167 166
257 245 239 253 285 282 321 290 281 265 278 271 259 248 235 221 209 209 207 202 196 200 186 176 172 167 163 145 150 152 173 196 223 241 271 330 10 54 59 89 112 131 139 177 201 184 181 168 179
233 332 230 237 221 277 241 241 280 294 277 273 262 249 238 221 204 204 208 209 201 183 169 173 166 162 160 165 173 175 192 211 208 215 259 295 326 353 24 108 134 161 178 194 204 202 193 190 183
187 46 45 59 107 264 223 206 274 238 237 264 267 258 244 229 222 221 209 166 170 144 144 152 162 171 167 173 183 188 196 196 183 218 234 265 285 285 301 300 204 203 201 204 214 205 203 207 193
95 90 354 331 292 254 196 211 252 250 242 240 263 271 276 248 218 219 37 90 191 161 163 165 170 185 182 182 193 204 205 197 203 215 221 232 259 262 258 272 263 252 228 211 205 205 210 214 210
199 167 179 229 248 283 257 236 256 264 273 279 270 256 287 281 223 223 236 249 256 205 186 188 193 201 196 198 214 215 217 213 217 219 220 225 237 248 255 258 258 251 240 223 208 206 219 215 222
159 201 185 163 251 273 263 277 297 277 290 293 315 7 302 279 252 254 319 317 305 250 225 216 215 216 211 213 217 217 219 226 232 228 226 231 243 256 253 246 247 252 240 230 219 214 222 220 227
171 154 124 165 234 265 280 266 255 264 259 268 282 280 282 296 302 270 258 268 276 275 285 245 233 237 230 218 222 227 226 233 240 226 227 234 245 253 247 242 240 243 241 232 223 227 219 221 226
162 166 176 178 196 213 272 269 234 232 239 241 250 251 249 256 260 257 259 262 266 326 335 284 276 292 289 259 241 240 241 240 247 238 235 237 244 247 243 238 236 236 235 230 222 229 228 227 234
196 200 177 197 238 221 245 270 269 236 248 235 247 249 253 252 260 262 263 273 265 264 267 256 260 260 272 280 266 254 254 246 248 256 249 240 243 248 248 244 238 237 236 234 230 230 231 229 232
Height
1501 1502 1503 1505 1509 1519 1519 1515 1512 1511 1511 1510 1510 1511 1512 1514 1517 1522 1517 1516 1518 1520 1522 1524 1525 1527 1528 1529 1530 1531 1532 1533 1533 1534 1534 1534 1535 1535 1535 1535 1535 1535 1535 1535 1534 1534 1534 1533 1533
1501 1502 1504 1505 1514 1523 1519 1512 1511 1509 1509 1509 1509 1510 1511 1512 1513 1514 1514 1516 1518 1520 1522 1523 1525 1526 1527 1529 1530 1531 1532 1533 1533 1534 1534 1535 1535 1535 1536 1536 1536 1536 1536 1536 1536 1536 1536 1536 1536
1500 1502 1504 1507 1515 1517 1513 1509 1508 1508 1508 1508 1509 1510 1511 1512 1513 1513 1514 1516 1518 1520 1521 1523 1525 1526 1527 1529 1530 1531 1532 1533 1533 1534 1535 1535 1536 1536 1536 1537 1537 1537 1537 1537 1537 1537 1537 1538 1538
1501 1503 1504 1511 1512 1510 1508 1506 1506 1507 1508 1508 1508 1510 1511 1512 1512 1513 1514 1516 1518 1520 1521 1523 1524 1526 1527 1529 1530 1531 1532 1533 1533 1534 1535 1535 1536 1536 1536 1537 1537 1538 1538 1538 1538 1538 1539 1539 1540
1501 1502 1508 1513 1510 1507 1506 1505 1506 1507 1507 1508 1508 1509 1510 1511 1512 1513 1514 1516 1518 1520 1521 1523 1524 1526 1527 1528 1530 1531 1532 1533 1533 1534 1535 1536 1536 1536 1537 1537 1538 1538 1539 1539 1539 1539 1540 1540 1541
1501 1502 1513 1514 1509 1506 1505 1505 1505 1506 1507 1507 1508 1509 1509 1511 1511 1513 1514 1516 1518 1520 1521 1523 1524 1525 1527 1528 1529 1531 1532 1532 1533 1534 1535 1535 1536 1537 1537 1538 1538 1539 1539 1540 1540 1540 1541 1541 1542
1500 1505 1510 1509 1508 1506 1504 1504 1505 1505 1505 1507 1507 1508 1508 1510 1511 1512 1514 1516 1518 1520 1521 1522 1524 1525 1526 1528 1529 1530 1531 1532 1533 1534 1534 1535 1536 1536 1537 1538 1539 1539 1540 1540 1541 1540 1541 1542 1543
1499 1504 1507 1508 1506 1504 1502 1502 1503 1504 1505 1506 1507 1507 1507 1509 1510 1512 1514 1516 1517 1519 1520 1522 1523 1525 1526 1527 1528 1530 1531 1531 1532 1533 1534 1535 1536 1536 1537 1538 1539 1539 1540 1541 1541 1541 1542 1542 1543
1499 1506 1507 1505 1504 1502 1501 1502 1502 1503 1504 1504 1505 1506 1506 1507 1509 1511 1513 1514 1516 1518 1519 1521 1522 1524 1525 1527 1528 1529 1530 1531 1532 1533 1533 1534 1535 1536 1537 1537 1538 1539 1540 1540 1541 1541 1542 1543 1543
1498 1505 1501 1500 1500 1500 1501 1501 1502 1502 1503 1503 1504 1504 1505 1506 1508 1509 1510 1512 1514 1516 1518 1520 1521 1523 1524 1526 1527 1528 1529 1530 1531 1532 1533 1533 1534 1535 1536 1537 1538 1539 1540 1540 1541 1541 1542 1543 1543
1498 1500 1499 1499 1499 1499 1500 1500 1501 1501 1502 1502 1501 1502 1503 1505 1506 1507 1509 1511 1513 1515 1517 1519 1520 1522 1523 1524 1526 1527 1528 1529 1530 1531 1532 1533 1533 1534 1535 1536 1537 1538 1539 1540 1540 1541 1541 1542 1543
1499 1499 1498 1498 1498 1499 1499 1499 1500 1500 1500 1500 1500 1501 1501 1503 1504 1505 1507 1509 1512 1513 1515 1517 1519 1520 1522 1523 1525 1525 1526 1527 1528 1529 1530 1531 1532 1533 1534 1535 1536 1537 1538 1539 1539 1540 1541 1541 1542
1498 1498 1498 1498 1498 1498 1498 1498 1498 1497 1498 1498 1499 1499 1500 1501 1503 1504 1506 1508 1510 1512 1514 1515 1517 1519 1520 1522 1523 1524 1525 1526 1526 1528 1529 1530 1530 1531 1532 1533 1535 1536 1537 1537 1538 1539 1539 1540 1541
1498 1498 1498 1497 1497 1497 1497 1496 1497 1494 1496 1496 1496 1496 1498 1499 1500 1502 1504 1506 1508 1509 1511 1513 1515 1516 1517 1519 1521 1522 1523 1524 1525 1525 1527 1528 1529 1530 1531 1532 1533 1534 1535 1536 1536 1537 1538 1539 1540
1497 1498 1497 1496 1496 1497 1497 1495 1494 1492 1493 1494 1494 1494 1496 1497 1498 1500 1502 1503 1505 1507 1509 1510 1512 1513 1515 1516 1518 1519 1520 1521 1522 1523 1524 1525 1527 1528 1529 1530 1531 1532 1533 1534 1535 1536 1536 1537 1538
1498 1499 1500 1496 1496 1496 1500 1495 1491 1491 1491 1491 1492 1492 1493 1495 1496 1497 1499 1501 1503 1504 1506 1508 1509 1511 1512 1514 1515 1516 1517 1518 1520 1521 1522 1523 1524 1525 1526 1527 1529 1530 1530 1531 1532 1533 1534 1535 1536
1501 1503 1500 1498 1495 1496 1498 1494 1490 1489 1489 1489 1489 1489 1490 1492 1493 1494 1496 1498 1500 1501 1503 1505 1506 1508 1509 1511 1512 1513 1514 1515 1517 1518 1519 1520 1522 1523 1524 1525 1526 1527 1528 1529 1530 1530 1531 1532 1533
1501 1502 1501 1499 1496 1496 1497 1493 1488 1487 1487 1486 1486 1486 1487 1487 1489 1491 1493 1495 1497 1498 1500 1502 1503 1505 1506 1507 1509 1510 1511 1512 1514 1515 1516 1518 1519 1520 1521 1522 1523 1524 1525 1526 1526 1528 1529 1529 1531
1499 1501 1501 1498 1496 1497 1495 1491 1486 1484 1484 1483 1482 1483 1483 1484 1486 1487 1489 1491 1493 1495 1497 1498 1500 1501 1502 1504 1505 1506 1508 1509 1510 1512 1513 1514 1516 1517 1518 1519 1520 1521 1522 1522 1523 1525 1525 1526 1527
1499 1500 1499 1497 1496 1496 1495 1490 1483 1481 1481 1479 1479 1479 1479 1480 1481 1483 1485 1487 1489 1491 1493 1495 1496 1498 1499 1500 1502 1503 1504 1506 1507 1508 1509 1511 1512 1513 1515 1515 1516 1517 1518 1519 1520 1521 1522 1523 1524
1497 1499 1498 1498 1497 1497 1497 1487 1482 1478 1477 1476 1476 1475 1476 1477 1477 1479 1481 1483 1485 1487 1489 1491 1493 1494 1496 1497 1499 1500 1501 1502 1503 1505 1506 1507 1508 1510 1511 1512 1513 1514 1515 1515 1516 1517 1518 1519 1521
1496 1495 1496 1497 1500 1502 1500 1496 1480 1478 1476 1473 1473 1473 1473 1474 1475 1476 1478 1479 1481 1484 1486 1488 1490 1491 1493 1494 1495 1496 1497 1498 1499 1501 1502 1503 1504 1506 1507 1508 1509 1510 1511 1512 1513 1514 1515 1516 1517
1495 1495 1496 1497 1500 1503 1503 1502 1483 1479 1476 1471 1470 1470 1470 1471 1472 1473 1475 1477 1479 1481 1482 1484 1486 1488 1489 1490 1492 1493 1494 1495 1496 1497 1498 1500 1501 1502 1503 1504 1505 1506 1507 1508 1509 1510 1511 1512 1513
1495 1497 1499 1502 1503 1501 1497 1501 1484 1479 1473 1469 1468 1467 1468 1469 1470 1471 1473 1474 1476 1477 1479 1481 1483 1484 1486 1487 1488 1489 1490 1491 1492 1493 1494 1496 1497 1498 1499 1500 1501 1502 1503 1504 1505 1506 1507 1508 1509
1496 1500 1503 1502 1504 1497 1495 1495 1482 1473 1470 1468 1467 1467 1467 1468 1469 1469 1470 1471 1473 1474 1476 1478 1479 1480 1482 1483 1485 1486 1487 1488 1488 1490 1491 1491 1493 1494 1494 1495 1496 1498 1499 1500 1501 1502 1503 1504 1505
1496 1497 1502 1503 1502 1498 1496 1491 1477 1470 1468 1467 1466 1466 1466 1467 1467 1468 1469 1470 1471 1472 1473 1475 1476 1477 1479 1480 1481 1482 1483 1484 1485 1486 1486 1487 1488 1489 1490 1491 1492 1493 1494 1495 1496 1497 1498 1499 1500
1495 1498 1497 1503 1506 1506 1493 1487 1476 1468 1466 1465 1465 1465 1465 1466 1466 1467 1468 1468 1469 1470 1471 1472 1473 1474 1475 1476 1477 1478 1479 1480 1481 1481 1482 1483 1483 1484 1486 1487 1487 1488 1489 1490 1491 1492 1493 1494 1495
1493 1496 1502 1502 1500 1499 1491 1487 1477 1467 1465 1465 1465 1464 1465 1465 1465 1466 1466 1467 1467 1468 1469 1469 1470 1471 1472 1472 1473 1474 1474 1475 1476 1477 1477 1478 1479 1479 1481 1481 1482 1483 1484 1484 1485 1486 1488 1489 1489
1495 1497 1497 1500 1500 1499 1495 1479 1467 1464 1463 1463 1463 1463 1464 1464 1464 1464 1465 1465 1465 1466 1466 1466 1467 1467 1468 1469 1469 1470 1470 1471 1471 1472 1472 1473 1474 1474 1475 1476 1477 1477 1478 1479 1480 1481 1482 1483 1484
1490 1491 1495 1496 1497 1500 1495 1478 1463 1463 1461 1462 1462 1462 1462 1463 1463 1462 1462 1463 1463 1463 1463 1463 1463 1464 1464 1465 1465 1465 1466 1466 1466 1467 1467 1468 1469 1469 1470 1471 1471 1472 1472 1473 1474 1475 1476 1477 1478